| time (UTC) | temp F | wind direction | speed MPH | gust MPH | rain 1hr in | rain 24hr in | rain mn in | humidity % | barometer mb |
| 20260901065712 | 65 | 172 | 0.0 | 0.0 | 0.00 | 0.00 | 0.00 | 70 | 1018.2 |
| 20260901064728 | 65 | 172 | 0.0 | 0.0 | 0.00 | 0.00 | 0.00 | 70 | 1018.4 |
| 20260901063713 | 65 | 172 | 0.0 | 0.0 | 0.00 | 0.00 | 0.00 | 69 | 1018.6 |
| 20260901062714 | 65 | 172 | 0.0 | 0.0 | 0.00 | 0.00 | 0.00 | 69 | 1018.5 |
| 20260901061713 | 65 | 172 | 0.0 | 0.0 | 0.00 | 0.00 | 0.00 | 69 | 1018.4 |
| 20260901061215 | 65 | 172 | 0.0 | 0.0 | 0.00 | 0.00 | 0.00 | 69 | 1018.4 |
| 20260901055713 | 65 | 172 | 0.0 | 0.0 | 0.00 | 0.00 | 0.00 | 70 | 1018.5 |
| 20260901054707 | 65 | 172 | 0.0 | 0.0 | 0.00 | 0.00 | 0.00 | 70 | 1018.6 |
| 20260901053707 | 65 | 172 | 0.0 | 1.0 | 0.00 | 0.00 | 0.00 | 70 | 1018.7 |
| 20260901052708 | 65 | 172 | 0.0 | 0.0 | 0.00 | 0.00 | 0.00 | 70 | 1018.6 |
| 20260901052208 | 65 | 172 | 0.0 | 0.0 | 0.00 | 0.00 | 0.00 | 70 | 1018.5 |
| 20260901050708 | 65 | 172 | 0.0 | 0.0 | 0.00 | 0.01 | 0.00 | 70 | 1018.6 |
| 20260901045708 | 65 | 172 | 0.0 | 0.0 | 0.00 | 0.03 | 0.00 | 69 | 1018.6 |
| 20260901044706 | 65 | 172 | 0.0 | 0.0 | 0.00 | 0.03 | 0.00 | 69 | 1018.6 |
| 20260901043705 | 65 | 172 | 0.0 | 0.0 | 0.00 | 0.03 | 0.00 | 70 | 1018.9 |
| 20260901042704 | 65 | 172 | 0.0 | 0.0 | 0.00 | 0.03 | 0.00 | 71 | 1019.0 |
| 20260901042205 | 66 | 172 | 0.0 | 0.0 | 0.00 | 0.03 | 0.00 | 72 | 1019.0 |
| 20260901040703 | 66 | 172 | 0.0 | 0.0 | 0.00 | 0.03 | 0.00 | 72 | 1019.0 |
| 20260901035702 | 66 | 172 | 0.0 | 0.0 | 0.00 | 0.03 | 0.03 | 72 | 1019.0 |
| 20260901034701 | 67 | 172 | 0.0 | 0.0 | 0.00 | 0.04 | 0.03 | 71 | 1019.0 |
| 20260901033701 | 67 | 172 | 0.0 | 0.0 | 0.00 | 0.05 | 0.03 | 71 | 1019.0 |
| 20260901032704 | 67 | 172 | 0.0 | 0.0 | 0.00 | 0.10 | 0.03 | 72 | 1019.1 |
| 20260901031702 | 67 | 172 | 0.0 | 0.0 | 0.00 | 0.10 | 0.03 | 72 | 1019.1 |
| 20260901030702 | 67 | 172 | 0.0 | 0.0 | 0.00 | 0.11 | 0.03 | 72 | 1019.0 |
| 20260901025704 | 67 | 172 | 0.0 | 0.0 | 0.00 | 0.12 | 0.03 | 72 | 1019.1 |
| 20260901025205 | 67 | 172 | 0.0 | 1.0 | 0.00 | 0.13 | 0.03 | 72 | 1019.1 |
| 20260901023702 | 67 | 167 | 0.0 | 0.0 | 0.00 | 0.13 | 0.03 | 72 | 1019.2 |
| 20260901022703 | 67 | 167 | 0.0 | 0.0 | 0.00 | 0.13 | 0.03 | 73 | 1019.3 |
| 20260901021702 | 67 | 167 | 0.0 | 0.0 | 0.00 | 0.13 | 0.03 | 74 | 1019.4 |
| 20260901020704 | 68 | 167 | 0.0 | 0.0 | 0.00 | 0.14 | 0.03 | 73 | 1019.3 |
| 20260901015704 | 68 | 167 | 0.0 | 0.0 | 0.00 | 0.14 | 0.03 | 74 | 1019.4 |
| 20260901014701 | 68 | 167 | 0.0 | 0.0 | 0.00 | 0.14 | 0.03 | 74 | 1019.2 |
| 20260901013703 | 68 | 167 | 0.0 | 0.0 | 0.00 | 0.14 | 0.03 | 73 | 1019.2 |
| 20260901013157 | 68 | 167 | 0.0 | 0.0 | 0.00 | 0.14 | 0.03 | 73 | 1019.3 |
| 20260901012157 | 68 | 167 | 0.0 | 1.0 | 0.00 | 0.14 | 0.03 | 73 | 1019.3 |
| 20260901011156 | 69 | 155 | 0.0 | 1.0 | 0.00 | 0.14 | 0.03 | 73 | 1019.2 |
| 20260901005656 | 69 | 155 | 0.0 | 0.0 | 0.00 | 0.14 | 0.03 | 73 | 1019.3 |
| 20260901004657 | 69 | 155 | 0.0 | 0.0 | 0.00 | 0.14 | 0.03 | 74 | 1019.2 |
| 20260901003656 | 69 | 155 | 0.0 | 1.0 | 0.00 | 0.14 | 0.03 | 74 | 1019.2 |
| 20260901002656 | 69 | 155 | 0.0 | 1.0 | 0.00 | 0.14 | 0.03 | 75 | 1019.2 |
| 20260901001655 | 69 | 155 | 0.0 | 0.0 | 0.00 | 0.14 | 0.03 | 75 | 1019.4 |
| 20260901001157 | 69 | 155 | 0.0 | 0.0 | 0.00 | 0.14 | 0.03 | 75 | 1019.4 |
| 20260831235651 | 69 | 155 | 0.0 | 0.0 | 0.00 | 0.14 | 0.03 | 75 | 1019.3 |
| 20260831234649 | 69 | 155 | 0.0 | 0.0 | 0.00 | 0.14 | 0.03 | 75 | 1019.4 |
| 20260831233702 | 69 | 155 | 0.0 | 0.0 | 0.00 | 0.14 | 0.03 | 75 | 1019.2 |
| 20260831233651 | 69 | 155 | 0.0 | 1.0 | 0.00 | 0.14 | 0.03 | 75 | 1019.3 |
| 20260831231650 | 70 | 155 | 0.0 | 1.0 | 0.00 | 0.14 | 0.03 | 75 | 1019.2 |
| 20260831230651 | 70 | 155 | 0.0 | 1.0 | 0.00 | 0.14 | 0.03 | 75 | 1019.3 |
| 20260831225649 | 70 | 155 | 0.0 | 1.0 | 0.00 | 0.14 | 0.03 | 75 | 1019.3 |
| 20260831224651 | 71 | 160 | 0.0 | 1.0 | 0.00 | 0.14 | 0.03 | 75 | 1019.3 |
| 20260831223650 | 71 | 150 | 0.0 | 1.0 | 0.00 | 0.14 | 0.03 | 75 | 1019.4 |
| 20260831222646 | 71 | 160 | 0.0 | 1.0 | 0.00 | 0.14 | 0.03 | 75 | 1019.4 |
| 20260831221644 | 72 | 163 | 0.0 | 1.0 | 0.00 | 0.14 | 0.03 | 74 | 1019.4 |
| 20260831220643 | 72 | 163 | 0.0 | 1.0 | 0.00 | 0.14 | 0.03 | 74 | 1019.5 |
| 20260831215644 | 73 | 166 | 0.0 | 1.0 | 0.00 | 0.14 | 0.03 | 73 | 1019.4 |
| 20260831214645 | 73 | 181 | 0.0 | 1.0 | 0.00 | 0.14 | 0.03 | 69 | 1019.4 |
| 20260831213644 | 74 | 195 | 0.0 | 1.0 | 0.00 | 0.14 | 0.03 | 67 | 1019.5 |
| 20260831212646 | 74 | 195 | 0.0 | 1.0 | 0.00 | 0.14 | 0.03 | 67 | 1019.4 |
| 20260831211643 | 74 | 162 | 0.0 | 1.0 | 0.00 | 0.14 | 0.03 | 66 | 1019.4 |
| 20260831210643 | 74 | 129 | 0.0 | 1.0 | 0.00 | 0.14 | 0.03 | 65 | 1019.3 |
| 20260831205638 | 76 | 136 | 0.0 | 1.0 | 0.00 | 0.14 | 0.03 | 62 | 1019.3 |
| 20260831204639 | 76 | 133 | 0.0 | 1.0 | 0.00 | 0.14 | 0.03 | 62 | 1019.3 |
| 20260831203637 | 75 | 136 | 0.0 | 1.0 | 0.00 | 0.14 | 0.03 | 61 | 1019.4 |
| 20260831202640 | 75 | 128 | 0.0 | 1.0 | 0.00 | 0.14 | 0.03 | 62 | 1019.4 |
| 20260831201638 | 76 | 112 | 0.0 | 1.0 | 0.00 | 0.14 | 0.03 | 62 | 1019.2 |
| 20260831200637 | 76 | 134 | 0.0 | 1.0 | 0.00 | 0.14 | 0.03 | 61 | 1019.2 |
| 20260831200140 | 76 | 183 | 0.0 | 5.0 | 0.00 | 0.14 | 0.03 | 61 | 1019.5 |
| 20260831195754 | 75 | 33 | 0.0 | 5.0 | 0.00 | 0.14 | 0.03 | 65 | 1019.4 |
| 20260831193638 | 74 | 67 | 1.0 | 5.0 | 0.00 | 0.14 | 0.03 | 66 | 1019.5 |
| 20260831192632 | 74 | 103 | 0.0 | 1.0 | 0.00 | 0.14 | 0.03 | 64 | 1019.5 |
| 20260831191631 | 75 | 113 | 0.0 | 4.0 | 0.00 | 0.14 | 0.03 | 65 | 1019.8 |
| 20260831190632 | 74 | 33 | 1.0 | 5.0 | 0.00 | 0.14 | 0.03 | 64 | 1019.8 |
| 20260831185633 | 75 | 108 | 0.0 | 1.0 | 0.00 | 0.14 | 0.03 | 64 | 1019.9 |
| 20260831184633 | 74 | 219 | 1.0 | 5.0 | 0.00 | 0.14 | 0.03 | 66 | 1020.1 |
| 20260831184136 | 74 | 70 | 0.0 | 5.0 | 0.00 | 0.14 | 0.03 | 66 | 1020.0 |
| 20260831182633 | 74 | 134 | 1.0 | 5.0 | 0.00 | 0.14 | 0.03 | 67 | 1019.9 |
| 20260831181634 | 74 | 57 | 1.0 | 4.0 | 0.00 | 0.14 | 0.03 | 67 | 1020.0 |
| 20260831180630 | 74 | 358 | 0.0 | 3.0 | 0.00 | 0.14 | 0.03 | 68 | 1020.2 |
| 20260831180129 | 74 | 71 | 1.0 | 5.0 | 0.00 | 0.14 | 0.03 | 67 | 1020.3 |
| 20260831174627 | 74 | 108 | 0.0 | 3.0 | 0.00 | 0.14 | 0.03 | 67 | 1020.4 |
| 20260831173628 | 74 | 102 | 1.0 | 5.0 | 0.00 | 0.14 | 0.03 | 66 | 1020.3 |
| 20260831172627 | 74 | 79 | 0.0 | 3.0 | 0.00 | 0.14 | 0.03 | 65 | 1020.3 |
| 20260831171626 | 74 | 79 | 1.0 | 6.0 | 0.00 | 0.14 | 0.03 | 64 | 1020.3 |
| 20260831171128 | 74 | 238 | 1.0 | 5.0 | 0.00 | 0.14 | 0.03 | 62 | 1020.4 |
| 20260831165627 | 74 | 92 | 1.0 | 7.0 | 0.00 | 0.14 | 0.03 | 64 | 1020.4 |
| 20260831164625 | 74 | 65 | 0.0 | 6.0 | 0.00 | 0.14 | 0.03 | 64 | 1020.6 |
| 20260831163626 | 74 | 31 | 0.0 | 3.0 | 0.00 | 0.14 | 0.03 | 65 | 1020.6 |
| 20260831162623 | 74 | 242 | 1.0 | 5.0 | 0.00 | 0.14 | 0.03 | 66 | 1020.6 |
| 20260831161625 | 74 | 78 | 1.0 | 6.0 | 0.00 | 0.14 | 0.03 | 65 | 1020.6 |
| 20260831160624 | 73 | 330 | 1.0 | 5.0 | 0.00 | 0.14 | 0.03 | 66 | 1020.6 |
| 20260831160125 | 73 | 79 | 1.0 | 5.0 | 0.00 | 0.14 | 0.03 | 67 | 1020.8 |
| 20260831155123 | 72 | 77 | 1.0 | 4.0 | 0.00 | 0.14 | 0.03 | 68 | 1021.0 |
| 20260831153622 | 72 | 76 | 1.0 | 6.0 | 0.00 | 0.14 | 0.03 | 68 | 1021.1 |
| 20260831152619 | 72 | 78 | 1.0 | 6.0 | 0.00 | 0.14 | 0.03 | 66 | 1021.2 |
| 20260831151620 | 71 | 162 | 2.0 | 6.0 | 0.00 | 0.14 | 0.03 | 70 | 1021.0 |
| 20260831150619 | 72 | 84 | 1.0 | 4.0 | 0.00 | 0.14 | 0.03 | 70 | 1021.0 |
| 20260831145619 | 71 | 51 | 1.0 | 4.0 | 0.00 | 0.14 | 0.03 | 68 | 1021.0 |
| 20260831144617 | 71 | 82 | 1.0 | 5.0 | 0.00 | 0.14 | 0.03 | 69 | 1021.0 |
| 20260831143616 | 71 | 80 | 1.0 | 6.0 | 0.00 | 0.14 | 0.03 | 71 | 1021.0 |
| 20260831142615 | 71 | 246 | 1.0 | 5.0 | 0.00 | 0.14 | 0.03 | 72 | 1020.9 |
| 20260831141617 | 71 | 338 | 1.0 | 4.0 | 0.00 | 0.14 | 0.03 | 72 | 1020.8 |
| 20260831140615 | 71 | 304 | 1.0 | 6.0 | 0.00 | 0.14 | 0.03 | 74 | 1020.8 |
| 20260831135616 | 70 | 90 | 1.0 | 7.0 | 0.00 | 0.14 | 0.03 | 75 | 1020.5 |
| 20260831134616 | 69 | 113 | 1.0 | 6.0 | 0.00 | 0.14 | 0.03 | 75 | 1020.6 |
| 20260831133616 | 69 | 84 | 2.0 | 7.0 | 0.00 | 0.14 | 0.03 | 75 | 1020.6 |
| 20260831131631 | 69 | 65 | 2.0 | 6.0 | 0.00 | 0.14 | 0.03 | 74 | 1020.5 |
| 20260831130616 | 68 | 73 | 1.0 | 6.0 | 0.00 | 0.14 | 0.03 | 73 | 1020.5 |
| 20260831125616 | 68 | 82 | 1.0 | 4.0 | 0.00 | 0.14 | 0.03 | 71 | 1020.6 |
| 20260831124616 | 67 | 68 | 1.0 | 6.0 | 0.00 | 0.14 | 0.03 | 70 | 1020.5 |
| 20260831123616 | 67 | 110 | 0.0 | 4.0 | 0.00 | 0.14 | 0.03 | 65 | 1020.4 |
| 20260831122616 | 66 | 82 | 1.0 | 5.0 | 0.00 | 0.14 | 0.03 | 61 | 1020.3 |
| 20260831121616 | 65 | 70 | 1.0 | 5.0 | 0.00 | 0.14 | 0.03 | 59 | 1020.2 |
| 20260831120617 | 65 | 103 | 0.0 | 3.0 | 0.00 | 0.14 | 0.03 | 59 | 1020.2 |
| 20260831115617 | 65 | 105 | 0.0 | 1.0 | 0.00 | 0.14 | 0.03 | 59 | 1020.2 |
| 20260831114615 | 65 | 96 | 0.0 | 1.0 | 0.00 | 0.14 | 0.03 | 59 | 1020.1 |
| 20260831113617 | 64 | 84 | 0.0 | 2.0 | 0.00 | 0.14 | 0.03 | 59 | 1020.0 |
| 20260831112616 | 64 | 228 | 0.0 | 1.0 | 0.00 | 0.14 | 0.03 | 59 | 1020.0 |
| 20260831111617 | 64 | 89 | 0.0 | 1.0 | 0.00 | 0.14 | 0.03 | 60 | 1019.9 |
| 20260831110617 | 64 | 70 | 0.0 | 0.0 | 0.00 | 0.14 | 0.03 | 60 | 1019.7 |
| 20260831105618 | 64 | 69 | 0.0 | 0.0 | 0.00 | 0.14 | 0.03 | 60 | 1019.7 |
| 20260831104617 | 64 | 69 | 0.0 | 0.0 | 0.00 | 0.14 | 0.03 | 60 | 1019.7 |
| 20260831103618 | 64 | 70 | 0.0 | 0.0 | 0.00 | 0.14 | 0.03 | 60 | 1019.6 |
| 20260831102615 | 64 | 70 | 0.0 | 0.0 | 0.00 | 0.14 | 0.03 | 60 | 1019.4 |
| 20260831101618 | 64 | 70 | 0.0 | 0.0 | 0.00 | 0.14 | 0.03 | 60 | 1019.2 |
| 20260831100615 | 64 | 69 | 0.0 | 1.0 | 0.00 | 0.14 | 0.03 | 60 | 1019.1 |
| 20260831095615 | 64 | 89 | 0.0 | 1.0 | 0.00 | 0.14 | 0.03 | 60 | 1018.9 |
| 20260831095117 | 64 | 221 | 0.0 | 0.0 | 0.00 | 0.14 | 0.03 | 60 | 1018.7 |
| 20260831093616 | 64 | 233 | 0.0 | 0.0 | 0.00 | 0.14 | 0.03 | 60 | 1018.7 |
| 20260831092616 | 64 | 233 | 0.0 | 0.0 | 0.00 | 0.14 | 0.03 | 59 | 1018.7 |
| 20260831091617 | 65 | 233 | 0.0 | 0.0 | 0.00 | 0.14 | 0.03 | 59 | 1018.6 |
| 20260831090615 | 65 | 233 | 0.0 | 0.0 | 0.00 | 0.14 | 0.03 | 59 | 1018.5 |
| 20260831085616 | 65 | 233 | 0.0 | 0.0 | 0.00 | 0.14 | 0.03 | 59 | 1018.5 |
| 20260831084616 | 65 | 233 | 0.0 | 0.0 | 0.00 | 0.14 | 0.03 | 59 | 1018.3 |
| 20260831083617 | 65 | 233 | 0.0 | 0.0 | 0.00 | 0.14 | 0.03 | 59 | 1018.3 |
| 20260831082616 | 65 | 233 | 0.0 | 0.0 | 0.00 | 0.14 | 0.03 | 59 | 1018.2 |
| 20260831081619 | 65 | 233 | 0.0 | 0.0 | 0.00 | 0.14 | 0.03 | 59 | 1018.1 |
| 20260831080620 | 66 | 233 | 0.0 | 0.0 | 0.00 | 0.14 | 0.03 | 59 | 1018.1 |
| 20260831075616 | 66 | 233 | 0.0 | 0.0 | 0.00 | 0.14 | 0.03 | 59 | 1018.0 |
| 20260831074617 | 66 | 233 | 0.0 | 1.0 | 0.00 | 0.14 | 0.03 | 59 | 1017.9 |
| 20260831073617 | 66 | 225 | 0.0 | 0.0 | 0.00 | 0.14 | 0.03 | 59 | 1017.8 |
| 20260831072615 | 66 | 122 | 0.0 | 0.0 | 0.00 | 0.14 | 0.03 | 59 | 1017.7 |
| 20260831071616 | 67 | 121 | 0.0 | 0.0 | 0.00 | 0.14 | 0.03 | 59 | 1017.6 |
| 20260831070616 | 67 | 122 | 0.0 | 0.0 | 0.00 | 0.14 | 0.03 | 59 | 1017.6 |